Regional Weather Roundup
Issued by NWS Green Bay, WI

Home | Current Version | Previous Version | Graphics & Text | Print | Product List | Glossary Off
Versions: 1 2 3 4 5 6 7 8 9 10 11 12 13 14 15 16 17 18 19 20 21 22 23 24 25 26 27 28 29 30 31 32 33 34 35 36 37 38 39 40 41 42 43 44 45 46 47 48 49 50

000
ASUS43 KGRB 230011
RWRGRB

NORTH-CENTRAL AND NORTHEAST WISCONSIN REGIONAL WEATHER ROUNDUP
NATIONAL WEATHER SERVICE GREEN BAY WI
700 PM CDT FRI JUL 22 2016

WIZ005-009-010>012-018-019-230100-
NORTH CENTRAL WISCONSIN

CITY           SKY/WX    TMP DP  RH WIND       PRES   REMARKS
IRONWOOD       SUNNY     84  64  51 NW6       29.95S
MANITOWISH WTR SUNNY     83  64  52 W6        30.01S
ARBOR VITAE    SUNNY     85  61  45 NW7       30.01S
EAGLE RIVER    SUNNY     84  55  36 NW6       30.00S
LAND O LAKES   SUNNY     85  57  39 NW6       30.01S
RHINELANDER    SUNNY     86  62  44 NW6       30.01S
PHILLIPS       SUNNY     85  66  53 W5        30.01R
ANTIGO         SUNNY     86  66  52 CALM      30.00S
TOMAHAWK       SUNNY     85  63  47 W5        30.01S
MERRILL        SUNNY     87  67  51 NW5       30.00R
$$

WIZ013-073-230100-
NORTHEAST WISCONSIN

CITY           SKY/WX    TMP DP  RH WIND       PRES   REMARKS
IRON MOUNTAIN  SUNNY     88  53  30 N9        29.95S
MARINETTE      SUNNY     85  72  65 SW5       29.92S HX  91
OCONTO         SUNNY     88  71  57 SW5       29.92S HX  94
$$

WIZ017-030-035>037-045-230100-
CENTRAL WISCONSIN

CITY           SKY/WX    TMP DP  RH WIND       PRES   REMARKS
MEDFORD        SUNNY     84  67  57 W5        30.01R
WAUSAU         SUNNY     87  65  47 W9        29.97S
MOSINEE        SUNNY     88  64  45 SW5       30.00F
MARSHFIELD     SUNNY     87  66  49 W5        30.00S
WISC RAPIDS    SUNNY     90  60  36 NW5       29.99S
STEVENS POINT  SUNNY     86  66  50 W5        29.98F
WAUPACA        SUNNY     92  65  40 W3        29.96S HX  94
SHAWANO        SUNNY     90  65  43 W5        29.94F HX  92
CLINTONVILLE   SUNNY     90  59  35 W6        29.95S
WAUTOMA        SUNNY     90  68  48 NW3       29.97S HX  94
$$

WIZ038-039-048-051-230100-
FOX VALLEY

CITY           SKY/WX    TMP DP  RH WIND       PRES   REMARKS
NWS GREEN BAY  SUNNY     87  70  56 W3        29.94S HX  92
APPLETON       SUNNY     88  64  45 W6        29.95S
OSHKOSH        SUNNY     89  70  53 W5        29.96R HX  94
FOND DU LAC    SUNNY     88  73  61 SW6       29.97R HX  95
$$

WIZ022-050-052-230100-
EAST CENTRAL WISCONSIN

CITY           SKY/WX    TMP DP  RH WIND       PRES   REMARKS
EPHRAIM        FAIR      85  69  59 W5        29.92S
WASHINGTON ISL NOT AVBL
STURGEON BAY   SUNNY     87  69  54 SW6       29.94S HX  91
MANITOWOC      SUNNY     80  69  69 S7        29.96S
SHEBOYGAN      SUNNY     86  71  60 W7        29.96S HX  91
$$

LMZ563-521-522-541>543-230100-
LAKESHORE

STATION/POSITION TIME  TEMP    WIND        PRES    VSBY  WAVE
                       AIR SEA DIR/SP/G                  HT/PER
                 (UTC) (F)     (DEG/KT/KT) (MB)    (MI)  (FT/S)
SHEBOYGAN LKSHOR 0000   70     160/ 12/ 12 1014.6R
KEWAUNEE LKSHORE 2300          180/ 13/ 14   N/A
NORTHPORT PIER   2300   86     170/  3/  7 1012.5S
N MID LAKE BUOY  2350   72 69  210/ 14/ 16 1012.2R         2/ 5
S GREEN BAY BUOY 2300   80 76  190/  6/  8   N/A
CHAMBERS ISLAND  2300   84     190/  8/ 12 1012.9S
MENOMINEE LKSHOR 2300          200/  8/ 11   N/A
$$




USA.gov is the U.S. government's official web portal to all federal, state and local government web resources and services.